Total_Precipitation_Accumulation
0.99 1.01 1.00 0.99 0.90 0.89 0.94 0.95 0.94 0.95 0.98 0.96 0.88 0.82 0.89 0.87 0.82 0.87 0.94 0.99 1.07 1.20 1.33 1.44 1.56 1.83 2.14 2.18 2.13 1.98 1.82 1.62 1.35 1.20 0.99 0.83 1.03 1.09 1.07 0.95 0.92 0.87 0.71
0.92 0.95 0.94 0.85 0.81 0.77 0.76 0.73 0.66 0.64 0.67 0.75 0.83 0.78 0.77 0.79 0.80 0.85 0.88 0.91 0.94 1.01 1.09 1.20 1.32 1.63 2.00 2.23 2.32 2.21 2.03 1.85 1.66 1.50 1.19 0.90 0.94 1.19 1.31 1.24 1.04 0.91 0.82
1.00 0.86 0.78 0.74 0.71 0.69 0.61 0.57 0.55 0.50 0.50 0.54 0.63 0.64 0.72 0.79 0.81 0.83 0.84 0.87 0.90 0.98 1.11 1.15 1.17 1.34 1.56 1.80 1.99 2.10 2.08 2.05 1.96 1.70 1.44 1.18 1.05 1.10 1.31 1.32 1.21 1.16 1.03
1.11 1.01 0.86 0.77 0.70 0.64 0.57 0.54 0.51 0.49 0.52 0.58 0.70 0.74 0.69 0.67 0.71 0.82 0.86 0.80 0.79 0.85 0.92 0.99 1.06 1.09 1.22 1.39 1.53 1.72 1.92 2.12 2.17 1.99 1.73 1.46 1.30 1.14 1.19 1.31 1.38 1.30 1.21
1.09 1.07 0.92 0.86 0.78 0.65 0.60 0.60 0.58 0.61 0.57 0.59 0.70 0.80 0.87 0.82 0.79 0.87 0.84 0.82 0.83 0.81 0.85 0.84 0.89 0.90 0.93 1.09 1.15 1.39 1.71 1.96 2.05 2.08 1.95 1.67 1.43 1.24 1.01 1.05 1.26 1.44 1.43
0.75 0.81 0.77 0.69 0.61 0.58 0.57 0.55 0.52 0.51 0.47 0.47 0.51 0.58 0.67 0.72 0.91 0.87 0.71 0.69 0.74 0.79 0.83 0.83 0.84 0.77 0.74 0.77 0.88 1.02 1.32 1.53 1.65 1.70 1.70 1.55 1.38 1.24 1.16 1.11 1.12 1.20 1.27
0.47 0.56 0.55 0.49 0.43 0.40 0.45 0.45 0.43 0.39 0.40 0.38 0.37 0.37 0.44 0.59 0.67 0.51 0.49 0.56 0.69 0.80 0.85 0.87 0.84 0.79 0.82 0.81 0.77 0.77 0.86 1.05 1.25 1.44 1.45 1.36 1.42 1.32 1.23 1.13 1.11 1.07 1.04
0.22 0.26 0.27 0.28 0.27 0.29 0.31 0.32 0.33 0.32 0.30 0.29 0.36 0.44 0.46 0.47 0.52 0.42 0.42 0.53 0.72 0.84 0.83 0.78 0.84 0.84 0.87 0.92 0.82 0.83 0.79 0.81 0.90 0.95 1.09 1.29 1.43 1.56 1.50 1.38 1.37 1.29 1.20
0.06 0.08 0.10 0.12 0.14 0.17 0.18 0.21 0.30 0.33 0.34 0.37 0.48 0.56 0.49 0.41 0.44 0.45 0.51 0.67 0.79 0.87 0.83 0.82 0.89 0.89 1.02 1.04 0.94 0.97 0.91 0.86 0.84 0.95 1.05 1.16 1.24 1.35 1.45 1.42 1.39 1.33 1.24
0.00 0.00 0.01 0.01 0.02 0.05 0.08 0.11 0.17 0.24 0.31 0.38 0.40 0.38 0.38 0.44 0.49 0.46 0.58 0.78 0.91 1.01 0.96 0.95 1.12 1.05 1.00 0.93 0.89 1.03 1.01 0.85 0.75 0.79 0.85 0.92 0.96 1.06 1.17 1.17 1.24 1.27 1.19
0.00 0.00 0.00 0.00 0.00 0.01 0.02 0.03 0.06 0.11 0.15 0.17 0.19 0.22 0.29 0.45 0.51 0.52 0.70 0.80 0.87 1.02 1.05 1.01 0.93 1.03 0.94 0.86 0.85 0.90 1.03 0.89 0.80 0.81 0.81 0.83 0.86 0.89 0.94 1.00 1.06 1.12 1.12
0.00 0.00 0.00 0.00 0.00 0.01 0.01 0.02 0.02 0.04 0.06 0.10 0.12 0.16 0.22 0.30 0.37 0.43 0.56 0.68 0.75 0.93 1.01 0.92 0.81 1.02 0.95 0.84 0.76 0.78 0.90 0.95 0.90 0.92 0.90 0.83 0.79 0.77 0.75 0.81 0.89 0.95 0.99
0.00 0.00 0.00 0.00 0.01 0.01 0.01 0.01 0.02 0.03 0.06 0.07 0.11 0.17 0.23 0.27 0.28 0.34 0.42 0.50 0.62 0.80 0.86 0.87 0.88 0.90 0.81 0.76 0.84 0.85 0.86 0.88 0.94 0.97 0.86 0.70 0.64 0.64 0.68 0.77 0.88 0.95 0.99
0.00 0.00 0.00 0.01 0.01 0.01 0.01 0.02 0.02 0.02 0.05 0.08 0.15 0.21 0.25 0.27 0.28 0.34 0.42 0.46 0.56 0.64 0.66 0.70 0.74 0.70 0.69 0.71 0.77 0.86 0.88 0.91 0.91 0.86 0.75 0.61 0.57 0.59 0.61 0.65 0.76 0.89 1.02
0.00 0.00 0.00 0.01 0.01 0.01 0.01 0.01 0.02 0.02 0.04 0.10 0.14 0.17 0.18 0.20 0.23 0.30 0.41 0.49 0.60 0.70 0.71 0.66 0.68 0.68 0.67 0.66 0.69 0.71 0.72 0.71 0.72 0.70 0.66 0.64 0.63 0.61 0.58 0.58 0.63 0.67 0.70
0.00 0.00 0.00 0.01 0.01 0.01 0.02 0.02 0.01 0.01 0.02 0.04 0.05 0.08 0.14 0.17 0.13 0.15 0.24 0.38 0.54 0.74 0.95 0.98 0.99 0.93 0.83 0.72 0.62 0.54 0.50 0.52 0.56 0.60 0.62 0.60 0.58 0.59 0.60 0.60 0.63 0.66 0.63
0.00 0.00 0.00 0.00 0.01 0.01 0.03 0.06 0.08 0.05 0.01 0.01 0.01 0.04 0.10 0.15 0.13 0.17 0.22 0.27 0.39 0.67 1.02 1.04 1.02 0.87 0.73 0.65 0.53 0.40 0.33 0.35 0.41 0.43 0.48 0.51 0.50 0.50 0.53 0.55 0.54 0.58 0.60
0.00 0.00 0.00 0.01 0.01 0.01 0.02 0.06 0.16 0.21 0.16 0.06 0.01 0.02 0.07 0.14 0.19 0.27 0.35 0.45 0.52 0.63 0.72 0.72 0.64 0.55 0.47 0.39 0.35 0.30 0.23 0.25 0.31 0.33 0.36 0.38 0.38 0.41 0.43 0.48 0.49 0.48 0.50
0.00 0.00 0.02 0.04 0.02 0.01 0.02 0.09 0.14 0.06 0.04 0.06 0.05 0.02 0.02 0.05 0.10 0.17 0.27 0.37 0.39 0.41 0.39 0.33 0.27 0.22 0.21 0.18 0.18 0.18 0.16 0.17 0.21 0.26 0.28 0.29 0.30 0.31 0.35 0.39 0.42 0.45 0.44
0.00 0.00 0.01 0.06 0.06 0.02 0.04 0.08 0.05 0.03 0.04 0.05 0.05 0.04 0.02 0.03 0.07 0.10 0.13 0.17 0.16 0.17 0.16 0.15 0.12 0.09 0.09 0.08 0.08 0.10 0.10 0.12 0.15 0.18 0.20 0.23 0.25 0.25 0.28 0.31 0.33 0.36 0.35
0.00 0.00 0.00 0.02 0.05 0.03 0.03 0.04 0.02 0.02 0.03 0.04 0.03 0.01 0.02 0.06 0.07 0.07 0.07 0.06 0.07 0.08 0.09 0.10 0.07 0.07 0.06 0.06 0.08 0.10 0.12 0.13 0.13 0.16 0.17 0.18 0.21 0.23 0.25 0.27 0.30 0.31 0.33
0.00 0.00 0.00 0.03 0.04 0.02 0.01 0.03 0.04 0.02 0.02 0.02 0.02 0.02 0.03 0.08 0.07 0.05 0.04 0.04 0.03 0.04 0.08 0.10 0.11 0.11 0.08 0.08 0.09 0.10 0.11 0.12 0.12 0.13 0.15 0.16 0.17 0.18 0.21 0.24 0.27 0.29 0.29
0.01 0.01 0.01 0.03 0.04 0.02 0.01 0.02 0.04 0.05 0.03 0.03 0.04 0.02 0.03 0.06 0.07 0.08 0.07 0.06 0.08 0.10 0.08 0.07 0.10 0.11 0.09 0.09 0.10 0.11 0.12 0.14 0.15 0.14 0.15 0.15 0.15 0.16 0.18 0.19 0.21 0.24 0.26
0.00 0.00 0.01 0.02 0.03 0.02 0.02 0.02 0.02 0.02 0.03 0.05 0.05 0.04 0.04 0.07 0.09 0.07 0.05 0.09 0.11 0.10 0.09 0.07 0.06 0.08 0.08 0.09 0.10 0.11 0.11 0.14 0.16 0.16 0.16 0.17 0.17 0.17 0.18 0.20 0.23 0.26 0.31
0.01 0.00 0.01 0.01 0.03 0.02 0.02 0.02 0.01 0.01 0.02 0.05 0.03 0.04 0.03 0.03 0.03 0.03 0.03 0.05 0.07 0.06 0.06 0.06 0.06 0.06 0.07 0.08 0.10 0.11 0.14 0.17 0.18 0.18 0.17 0.18 0.20 0.21 0.22 0.24 0.30 0.34 0.39
0.02 0.01 0.01 0.01 0.01 0.01 0.02 0.01 0.01 0.01 0.02 0.02 0.02 0.03 0.03 0.03 0.03 0.03 0.03 0.03 0.04 0.04 0.05 0.05 0.05 0.06 0.07 0.07 0.09 0.12 0.14 0.15 0.16 0.18 0.19 0.21 0.24 0.24 0.25 0.26 0.28 0.31 0.35